This is the latest recevied weather packets stored in our database for station/object K9NZF-1. If no packets are shown the sender has not sent any weather packets the latest 10 day(s).
| Time | Temp. | Humidity | Pressure | Rain* | Wind** | Luminosity | Snow |
|---|---|---|---|---|---|---|---|
| 1778181793 | 14.44° C | 49% | 1013.6 hPa | 0 mm | - | 956 W/m² | - |
| 1778181732 | 14.44° C | 51% | 1013.7 hPa | 0 mm | - | 958 W/m² | - |
| 1778181674 | 14.44° C | 53% | 1013.7 hPa | 0 mm | - | 958 W/m² | - |
| 1778181615 | 14.44° C | 52% | 1013.7 hPa | 0 mm | - | 940 W/m² | - |
| 1778181553 | 13.89° C | 49% | 1013.7 hPa | 0 mm | - | 930 W/m² | - |
| 1778181493 | 13.89° C | 51% | 1013.7 hPa | 0 mm | - | 923 W/m² | - |
| 1778181434 | 13.89° C | 51% | 1013.7 hPa | 0 mm | - | 921 W/m² | - |
| 1778181373 | 13.89° C | 52% | 1013.8 hPa | 0 mm | - | 919 W/m² | - |
| 1778181314 | 13.89° C | 54% | 1013.8 hPa | 0 mm | - | 926 W/m² | - |
| 1778181255 | 13.89° C | 54% | 1013.7 hPa | 0 mm | - | 962 W/m² | - |
| 1778181189 | 13.89° C | 52% | 1013.8 hPa | 0 mm | - | 962 W/m² | - |
| 1778181127 | 13.33° C | 55% | 1013.8 hPa | 0 mm | - | 947 W/m² | - |
| 1778181068 | 13.33° C | 50% | 1013.7 hPa | 0 mm | - | 953 W/m² | - |
| 1778181010 | 13.33° C | 49% | 1013.7 hPa | 0 mm | - | 962 W/m² | - |
| 1778180945 | 13.33° C | 52% | 1013.7 hPa | 0 mm | - | 979 W/m² | - |
| 1778180886 | 13.33° C | 52% | 1013.8 hPa | 0 mm | - | 984 W/m² | - |
| 1778180822 | 13.33° C | 51% | 1013.8 hPa | 0 mm | - | 998 W/m² | - |
| 1778180761 | 13.33° C | 49% | 1013.8 hPa | 0 mm | - | 322 W/m² | - |
| 1778180699 | 13.33° C | 51% | 1013.8 hPa | 0 mm | - | 322 W/m² | - |
| 1778180639 | 13.89° C | 48% | 1013.7 hPa | 0 mm | - | 287 W/m² | - |
| 1778180576 | 13.89° C | 48% | 1013.7 hPa | 0 mm | - | 287 W/m² | - |
| 1778180514 | 13.89° C | 49% | 1013.8 hPa | 0 mm | - | 278 W/m² | - |
| 1778180454 | 13.89° C | 49% | 1013.7 hPa | 0 mm | - | 274 W/m² | - |
| 1778180395 | 13.89° C | 53% | 1013.7 hPa | 0 mm | - | 253 W/m² | - |
| 1778180330 | 13.89° C | 52% | 1013.6 hPa | 0 mm | - | 1071 W/m² | - |
* Rain latest hour (hover to see other rain measurements)
** Current wind speed in m/s (hover to see current wind gust speed)